Novato, CA

5:47 AM PST on December 08, 2019 (GMT -0800)
Gnoss

Weather History for KDVO - November, 2019

Change the Weather History Date:

Tuesday, November 19, 2019

  Actual Average (WUND) Record (WUND)
Temperature  
Mean Temperature 58 °F -  
Max Temperature 68 °F - - (-1)
Min Temperature 48 °F - - (-1)
Degree Days  
Heating Degree Days 7    
Growing Degree Days 8 (Base 50)    
Moisture  
Dew Point 47 °F    
Average Humidity 66    
Maximum Humidity 100    
Minimum Humidity 43    
Precipitation  
Precipitation 0.00 in - - ()
Sea Level Pressure  
Sea Level Pressure 29.72 in    
Wind  
Wind Speed 8 mph ()    
Max Wind Speed 20 mph    
Max Gust Speed 26 mph    
Visibility 10.0 miles    
Events      
Averages and records for this station are not official NWS values.
T = Trace of Precipitation, MM = Missing Value Source: Averaged Metar Reports

Daily Weather History Graph

Daily Weather History Graph

Search for Another Location

Airport or City:

Astronomy

Nov. 19, 2019 Rise Set
Actual Time 6:55 AM PST 4:55 PM PST
Civil Twilight 6:26 AM PST 5:23 PM PST
Nautical Twilight 5:54 AM PST 5:55 PM PST
Astronomical Twilight 5:23 AM PST 6:27 PM PST
Moon 11:56 PM PST (11/19) 1:09 PM PST (11/19)
Length of Visible Light 10h 56m
Length of Day
10h 00m
Waning Gibbous, 50% of the Moon is Illuminated
Nov 19
Waning Gibbous
Nov 19
Last Quarter
Nov 26
New
Dec 3
First Quarter
Dec 11
Full

Hourly Weather History & Observations

Time (PST) Temp. Dew Point Humidity Pressure Visibility Wind Dir Wind Speed Gust Speed Precip Events Conditions
12:15 AM 51.8 °F 50.0 °F 94% 29.83 in 10.0 mi SE 3.5 mph - N/A   Clear
12:35 AM 48.2 °F 46.4 °F 93% 29.83 in 10.0 mi Calm Calm - N/A   Clear
12:55 AM 50.0 °F 48.2 °F 94% 29.82 in 10.0 mi Calm Calm - N/A   Clear
1:15 AM 50.0 °F 50.0 °F 100% 29.82 in 10.0 mi Calm Calm - N/A   Clear
1:35 AM 50.0 °F 50.0 °F 100% 29.81 in 10.0 mi Calm Calm - N/A   Clear
1:55 AM 51.8 °F 51.8 °F 100% 29.81 in 10.0 mi Calm Calm - N/A   Clear
2:15 AM 53.6 °F 51.8 °F 94% 29.81 in 10.0 mi SW 5.8 mph - N/A   Clear
2:35 AM 57.2 °F 53.6 °F 88% 29.81 in 10.0 mi Calm Calm - N/A   Clear
2:55 AM 57.2 °F 53.6 °F 88% 29.81 in 10.0 mi Calm Calm - N/A   Clear
3:35 AM 57.2 °F 53.6 °F 88% 29.80 in 10.0 mi Variable 4.6 mph - N/A   Clear
3:55 AM 62.6 °F 55.4 °F 77% 29.79 in 10.0 mi WNW 10.4 mph 18.4 mph N/A   Clear
4:15 AM 62.6 °F 55.4 °F 77% 29.79 in 10.0 mi North - - N/A   Clear
4:35 AM 62.6 °F 53.6 °F 72% 29.78 in 10.0 mi North - - N/A   Clear
4:55 AM 60.8 °F 53.6 °F 77% 29.78 in 10.0 mi North - - N/A   Clear
5:15 AM 53.6 °F 51.8 °F 94% 29.78 in 10.0 mi Calm Calm - N/A   Clear
5:35 AM 51.8 °F 51.8 °F 100% 29.78 in 10.0 mi Variable 4.6 mph - N/A   Clear
5:55 AM 53.6 °F 53.6 °F 100% 29.79 in 10.0 mi Variable 3.5 mph - N/A   Clear
6:15 AM 57.2 °F 51.8 °F 82% 29.78 in 10.0 mi West 10.4 mph - N/A   Clear
6:35 AM 59.0 °F 51.8 °F 77% 29.79 in 10.0 mi Variable 6.9 mph 19.6 mph N/A   Clear
6:55 AM 57.2 °F 48.2 °F 72% 29.79 in 10.0 mi WNW 13.8 mph 23.0 mph N/A   Clear
7:15 AM 57.2 °F 46.4 °F 67% 29.79 in 10.0 mi WNW 15.0 mph 24.2 mph N/A   Clear
7:35 AM 57.2 °F 46.4 °F 67% 29.80 in 10.0 mi West 10.4 mph 20.7 mph N/A   Clear
7:55 AM 57.2 °F 46.4 °F 67% 29.81 in 10.0 mi West 10.4 mph - N/A   Clear
8:15 AM 59.0 °F 46.4 °F 63% 29.81 in 10.0 mi WSW 6.9 mph 15.0 mph N/A   Clear
8:35 AM 60.8 °F 46.4 °F 59% 29.81 in 10.0 mi West 11.5 mph - N/A   Clear
8:55 AM 60.8 °F 44.6 °F 55% 29.80 in 10.0 mi West 11.5 mph - N/A   Clear
9:15 AM 62.6 °F 44.6 °F 52% 29.80 in 10.0 mi West 12.7 mph - N/A   Clear
9:35 AM 62.6 °F 42.8 °F 48% 29.80 in 10.0 mi WNW 12.7 mph 23.0 mph N/A   Clear
9:55 AM 62.6 °F 44.6 °F 52% 29.79 in 10.0 mi WNW 12.7 mph 21.9 mph N/A   Clear
10:15 AM 64.4 °F 44.6 °F 49% 29.79 in 10.0 mi NNW 9.2 mph 16.1 mph N/A   Clear
10:35 AM 66.2 °F 44.6 °F 46% 29.78 in 10.0 mi WNW 11.5 mph - N/A   Clear
10:55 AM 66.2 °F 46.4 °F 49% 29.78 in 10.0 mi NW 8.1 mph 15.0 mph N/A   Clear
11:15 AM 66.2 °F 44.6 °F 46% 29.77 in 10.0 mi WNW 10.4 mph 18.4 mph N/A   Clear
11:35 AM 68.0 °F 44.6 °F 43% 29.76 in 10.0 mi WNW 9.2 mph 18.4 mph N/A   Clear
11:55 AM 66.2 °F 44.6 °F 46% 29.75 in 10.0 mi WNW 8.1 mph 17.3 mph N/A   Clear
12:15 PM 68.0 °F 44.6 °F 43% 29.74 in 10.0 mi WNW 11.5 mph - N/A   Clear
12:35 PM 68.0 °F 44.6 °F 43% 29.73 in 10.0 mi West 13.8 mph - N/A   Clear
12:55 PM 68.0 °F 44.6 °F 43% 29.72 in 10.0 mi WSW 15.0 mph - N/A   Clear
1:15 PM 68.0 °F 44.6 °F 43% 29.71 in 10.0 mi West 19.6 mph - N/A   Clear
1:35 PM 66.2 °F 44.6 °F 46% 29.70 in 10.0 mi West 13.8 mph 21.9 mph N/A   Clear
1:55 PM 66.2 °F 46.4 °F 49% 29.69 in 10.0 mi West 15.0 mph 21.9 mph N/A   Clear
2:15 PM 66.2 °F 48.2 °F 52% 29.68 in 10.0 mi West 15.0 mph 21.9 mph N/A   Clear
2:35 PM 66.2 °F 46.4 °F 49% 29.68 in 10.0 mi West 16.1 mph 23.0 mph N/A   Clear
2:55 PM 66.2 °F 48.2 °F 52% 29.68 in 10.0 mi WSW 12.7 mph - N/A   Clear
3:15 PM 64.4 °F 48.2 °F 56% 29.67 in 10.0 mi West 17.3 mph - N/A   Clear
3:35 PM 64.4 °F 48.2 °F 56% 29.66 in 10.0 mi West 15.0 mph - N/A   Clear
3:55 PM 62.6 °F 48.2 °F 59% 29.66 in 10.0 mi West 16.1 mph 21.9 mph N/A   Clear
4:15 PM 60.8 °F 48.2 °F 63% 29.65 in 10.0 mi WSW 16.1 mph - N/A   Clear
4:35 PM 60.8 °F 46.4 °F 59% 29.64 in 10.0 mi West 18.4 mph - N/A   Clear
4:55 PM 60.8 °F 46.4 °F 59% 29.64 in 10.0 mi West 10.4 mph 16.1 mph N/A   Clear
5:15 PM 59.0 °F 48.2 °F 67% 29.63 in 10.0 mi West 17.3 mph - N/A   Clear
5:35 PM 59.0 °F 46.4 °F 63% 29.63 in 10.0 mi WNW 11.5 mph - N/A   Clear
5:55 PM 59.0 °F 46.4 °F 63% 29.63 in 10.0 mi North - - N/A   Clear
6:15 PM 60.8 °F 44.6 °F 55% 29.62 in 10.0 mi WNW 10.4 mph 18.4 mph N/A   Clear
6:35 PM 59.0 °F 44.6 °F 59% 29.61 in 10.0 mi West 12.7 mph - N/A   Clear
6:55 PM 59.0 °F 44.6 °F 59% 29.61 in 10.0 mi WNW 11.5 mph - N/A   Clear
7:15 PM 59.0 °F 46.4 °F 63% 29.61 in 10.0 mi WNW 16.1 mph 21.9 mph N/A   Clear
7:35 PM 57.2 °F 46.4 °F 67% 29.60 in 10.0 mi NW 11.5 mph 20.7 mph N/A   Clear
7:50 PM 57.2 °F 46.4 °F 67% 29.60 in 10.0 mi NW 15.0 mph 20.7 mph N/A   Scattered Clouds
8:15 PM 57.2 °F 44.6 °F 63% 29.60 in 10.0 mi WNW 17.3 mph 25.3 mph N/A   Mostly Cloudy
8:35 PM 57.2 °F 44.6 °F 63% 29.60 in 10.0 mi NW 12.7 mph 25.3 mph N/A   Scattered Clouds
8:55 PM 57.2 °F 44.6 °F 63% 29.60 in 10.0 mi NW 10.4 mph 18.4 mph N/A   Mostly Cloudy
9:15 PM 55.4 °F 44.6 °F 67% 29.59 in 10.0 mi NW 10.4 mph - N/A   Mostly Cloudy
9:35 PM 55.4 °F 42.8 °F 63% 29.59 in 10.0 mi NW 15.0 mph - N/A   Mostly Cloudy
9:55 PM 55.4 °F 42.8 °F 63% 29.58 in 10.0 mi NW 17.3 mph - N/A   Mostly Cloudy
10:15 PM 55.4 °F 42.8 °F 63% 29.58 in 10.0 mi NW 19.6 mph - N/A   Overcast
10:35 PM 55.4 °F 42.8 °F 63% 29.58 in 10.0 mi NW 18.4 mph 26.5 mph N/A   Mostly Cloudy
10:55 PM 55.4 °F 42.8 °F 63% 29.58 in 10.0 mi NW 16.1 mph - N/A   Partly Cloudy
11:15 PM 55.4 °F 42.8 °F 63% 29.58 in 10.0 mi NW 15.0 mph - N/A   Clear
11:35 PM 55.4 °F 41.0 °F 58% 29.58 in 10.0 mi NW 15.0 mph 26.5 mph N/A   Clear